#timestamp,LO_Frequency,Hit 
1504303215.1,286046997.3,N
1504303235.8,286046995.4,N
1504303255.7,286046995.0,N
1504303275.5,286046998.4,N
1504303295.3,286047001.3,N
1504303315.2,286047003.4,N
1504303335.9,286047005.0,N
1504303355.7,286047005.9,N
1504303375.6,286047007.2,N
1504303395.4,286047009.0,N
1504303415.2,286047004.5,N
1504303435.1,286047003.8,N
1504303436.0,286047003.8,N
1504303455.8,286047001.5,N
1504303475.6,286047007.1,N
1504303495.5,286047006.4,N
1504303515.3,286047003.5,N
1504303535.1,286047003.4,N
1504303555.8,286047003.8,N
1504303575.7,286047000.8,N
1504303595.5,286047000.7,N
1504303615.3,286046999.7,N
1504303635.2,286047001.3,N
1504303655.9,286047000.1,N
1504303675.7,286046997.9,N
1504303695.6,286047001.0,N
1504303715.4,286047000.2,N
1504303735.2,286046998.8,N
1504303755.1,286046997.0,N
1504303756.0,286046997.0,N
1504303775.8,286046996.8,N
1504303795.6,286047000.5,N
1504303815.5,286047001.1,N
1504303835.3,286047000.0,N
1504303855.1,286047004.0,N
1504303875.8,286047007.1,N
1504303895.7,286047007.2,N
1504303915.5,286047004.6,N
1504303935.3,286047005.1,N
1504303955.2,286047003.3,N
1504303975.0,286047006.3,N
1504303975.9,286047006.3,N
1504303995.8,286047009.7,P
1504304015.6,286047009.4,N
1504304035.4,286047010.3,N
1504304055.2,286047004.8,N
1504304075.1,286046998.4,N
1504304076.0,286046998.4,N
1504304095.8,286047000.4,N
1504304115.6,286047000.0,N
1504304135.5,286046996.5,N
1504304155.3,286047000.0,N
1504304175.1,286047004.1,N
1504304195.9,286047006.6,N
1504304215.7,286047007.7,N
1504304235.5,286047008.2,N
1504304255.4,286047010.6,N
1504304275.2,286047012.4,N
1504304295.0,286047009.3,N
1504304295.9,286047009.3,N
1504304315.8,286047009.1,N
1504304335.6,286047006.6,N
1504304355.4,286047008.7,N
1504304375.2,286047010.6,N
1504304395.1,286047009.2,N
1504304396.0,286047009.2,N
1504304415.8,286047004.1,N
1504304435.6,286047005.0,N
1504304455.2,286047008.0,N
1504304475.0,286047011.7,N
1504304475.9,286047011.7,N
1504304495.7,286047009.3,N
1504304515.6,286047013.1,N
1504304535.4,286047012.7,N
1504304555.2,286047013.4,N
1504304575.1,286047012.3,N
1504304576.0,286047012.3,N
1504304595.8,286047012.3,N
1504304615.6,286047008.6,N
1504304635.5,286047007.5,N
1504304655.3,286047007.7,N
1504304675.1,286047011.2,P
1504304695.9,286047002.0,N
1504304715.7,286046998.3,N
1504304735.5,286046996.1,N
1504304755.4,286046994.1,N
1504304775.2,286046997.5,N
1504304795.0,286046996.5,N
1504304795.9,286046996.5,N
1504304815.8,286046999.6,N
1504304835.6,286046999.8,N
1504304855.4,286047004.0,N
1504304875.3,286047002.9,N
1504304895.1,286047005.3,N
1504304896.0,286047005.3,N
1504304915.8,286047005.4,N
1504304935.6,286047010.0,N
1504304955.5,286047008.0,N
1504304975.3,286047008.1,N
1504304995.1,286047007.6,N
1504305015.9,286047008.8,N
1504305035.7,286047010.2,N
1504305055.5,286047009.5,N
1504305075.4,286047010.5,N
1504305095.2,286047008.7,N
1504305115.0,286047006.9,N
1504305115.9,286047006.9,N
1504305135.8,286047010.3,N
1504305155.6,286047006.5,N
1504305175.4,286047006.7,N
1504305195.3,286047004.9,N
1504305215.1,286047007.1,N
1504305216.0,286047007.1,N
1504305235.8,286047007.8,N
1504305255.6,286047010.3,N
1504305275.5,286047008.1,N
1504305295.3,286047006.7,N
1504305315.1,286047010.6,N
1504305335.9,286047006.3,N
1504305355.7,286047003.7,N
1504305375.5,286047003.7,N
1504305395.4,286047003.1,N
1504305415.2,286047002.5,N
1504305435.0,286047000.0,N
1504305435.9,286047000.0,N
1504305455.8,286046996.9,N
1504305475.6,286047002.6,N
1504305495.4,286047003.0,N
1504305515.3,286047004.4,N
1504305535.1,286047000.2,N
1504305536.0,286047000.2,N
1504305555.8,286047003.4,N
1504305575.7,286047007.9,N
1504305595.5,286047006.3,N
1504305615.3,286047005.7,N
1504305635.2,286047001.7,N
1504305655.9,286047001.6,N
1504305675.7,286047004.3,N
1504305695.5,286047004.1,N
1504305715.4,286047004.8,N
1504305735.2,286047004.6,N
1504305755.1,286047009.8,P
1504305756.0,286047009.8,P
1504305775.8,286047003.4,N
1504305795.6,286047001.8,N
1504305815.4,286047003.6,N
1504305835.3,286047002.2,N
1504305855.1,286047004.0,N
1504305875.8,286047000.4,N
1504305895.7,286047001.2,N
1504305915.5,286047002.0,N
1504305935.3,286047000.6,N
1504305955.2,286047000.9,N
1504305975.9,286046998.8,N
1504305995.7,286046998.7,N
1504306015.6,286046999.1,N
1504306035.4,286046994.5,N
1504306055.2,286046989.8,N
1504306075.1,286046990.8,N
1504306076.0,286046990.8,N
1504306095.8,286046991.8,N
1504306115.6,286046992.2,N
1504306135.4,286046993.6,N
1504306155.3,286047000.6,N
1504306175.1,286047001.0,N
1504306195.8,286047004.4,N
1504306215.7,286047003.1,N
1504306235.5,286046999.9,N
1504306255.3,286047002.3,N
1504306275.2,286046999.1,N
1504306295.9,286046998.7,N
1504306315.7,286046998.5,N
1504306335.6,286047000.3,N
1504306355.4,286047005.8,N
1504306375.2,286047004.2,N
1504306395.1,286046999.8,N
1504306396.0,286046999.8,N
1504306415.8,286046999.8,N
1504306435.6,286047004.0,N
1504306455.5,286047005.8,N
1504306475.3,286047002.6,N
1504306495.1,286046997.0,N
1504306515.8,286047000.2,N
1504306535.7,286047002.9,N
1504306555.5,286047000.2,N
1504306575.3,286046996.5,N
1504306595.2,286046996.1,N
1504306615.9,286046999.7,N
1504306635.7,286047003.7,N
1504306655.6,286047003.2,N
1504306675.4,286047004.0,N
1504306695.2,286047001.0,N
1504306715.1,286046999.5,N
1504306716.0,286046999.5,N
1504306735.8,286047000.9,N
1504306755.6,286047003.6,N
1504306775.5,286046998.3,N
1504306795.3,286046999.2,N
